#�ϑ�����,���ϕ���,���ϕ���,�ő啗��,�ő啗����������,�ő�u�ԕ���,�ő�u�ԕ�����������
#(�N����),(m/s)   ,(16����),(m/s)   ,(16����)        ,(m/s)       ,(16����)            
2012/3/12 0:01,4,11,4,11,5.8,10
2012/3/12 0:02,3.9,11,4.1,11,5.7,10
2012/3/12 0:03,3.8,11,3.9,11,7.1,12
2012/3/12 0:04,3.7,11,3.8,11,6,11
2012/3/12 0:05,3.4,11,3.6,11,4.7,11
2012/3/12 0:06,3.3,11,3.3,11,5.4,10
2012/3/12 0:07,3.2,11,3.3,11,5.1,9
2012/3/12 0:08,3.1,11,3.2,11,4.3,14
2012/3/12 0:09,3.2,11,3.2,11,8.1,11
2012/3/12 0:10,3.2,11,3.2,11,5.4,11
2012/3/12 0:11,3.2,11,3.2,11,6,10
2012/3/12 0:12,3.2,11,3.2,11,6,11
2012/3/12 0:13,3.1,11,3.2,11,3.5,11
2012/3/12 0:14,3.1,11,3.1,11,6.5,10
2012/3/12 0:15,3.1,11,3.1,11,5.5,13
2012/3/12 0:16,3,11,3,11,6.8,10
2012/3/12 0:17,3.1,11,3.1,11,6.9,11
2012/3/12 0:18,3.1,11,3.2,11,7.2,13
2012/3/12 0:19,3,11,3.1,11,6.5,12
2012/3/12 0:20,3.1,11,3.1,11,7.2,12
2012/3/12 0:21,3.1,11,3.2,11,6.7,11
2012/3/12 0:22,3.1,11,3.1,11,6.9,10
2012/3/12 0:23,3.3,11,3.3,11,6.5,11
2012/3/12 0:24,3.4,11,3.4,11,10.2,11
2012/3/12 0:25,3.5,11,3.5,11,5.6,12
2012/3/12 0:26,3.5,11,3.5,11,5.6,14
2012/3/12 0:27,3.4,11,3.5,11,6.8,10
2012/3/12 0:28,3.6,11,3.6,11,6.9,12
2012/3/12 0:29,3.7,11,3.7,11,6.3,12
2012/3/12 0:30,3.6,12,3.7,11,5.8,13
2012/3/12 0:31,3.4,12,3.6,11,4.2,16
2012/3/12 0:32,3.4,12,3.4,11,4.9,11
2012/3/12 0:33,3.1,13,3.3,11,2.6,13
2012/3/12 0:34,3,13,3.1,11,5.4,2
2012/3/12 0:35,2.8,14,2.9,11,3.9,16
2012/3/12 0:36,2.9,14,2.9,11,6.4,11
2012/3/12 0:37,2.9,14,3,11,6.7,10
2012/3/12 0:38,2.7,13,2.9,11,3.5,11
2012/3/12 0:39,2.5,13,2.6,11,4.8,15
2012/3/12 0:40,2.4,13,2.5,12,3.5,13
2012/3/12 0:41,2.3,13,2.3,12,3.2,16
2012/3/12 0:42,2.2,14,2.3,12,2.6,11
2012/3/12 0:43,2.1,14,2.2,13,2.9,16
2012/3/12 0:44,1.9,14,2.1,14,2.2,14
2012/3/12 0:45,2,14,2,14,3.6,16
2012/3/12 0:46,2.1,14,2.1,14,7.5,16
2012/3/12 0:47,2.4,15,2.4,13,8.9,15
2012/3/12 0:48,2.6,15,2.6,13,5.6,15
2012/3/12 0:49,2.6,15,2.6,15,4.2,16
2012/3/12 0:50,2.5,16,2.6,15,2.2,15
2012/3/12 0:51,2.4,15,2.5,15,1.3,15
2012/3/12 0:52,2.5,15,2.5,15,3,15
2012/3/12 0:53,2.5,15,2.5,15,2.5,12
2012/3/12 0:54,2.6,15,2.6,15,2.7,11
2012/3/12 0:55,2.4,15,2.6,15,2.2,10
2012/3/12 0:56,2.2,14,2.3,15,3,11
2012/3/12 0:57,1.7,14,2.1,15,2.1,16
2012/3/12 0:58,1.6,14,1.6,15,5.2,16
2012/3/12 0:59,1.5,13,1.6,15,5,16
2012/3/12 1:00,1.6,13,1.6,15,3.5,14
2012/3/12 1:01,1.7,13,1.7,15,4.3,13
2012/3/12 1:02,1.6,13,1.7,15,2.7,8
2012/3/12 1:03,1.8,12,1.8,15,4.7,9
2012/3/12 1:04,1.8,12,1.8,15,4.5,10
2012/3/12 1:05,1.9,12,1.9,15,2.6,12
2012/3/12 1:06,1.9,12,1.9,14,2.6,11
2012/3/12 1:07,2,12,2,12,3.2,13
2012/3/12 1:08,1.8,11,1.9,12,3.3,9
2012/3/12 1:09,1.7,11,1.7,12,4.1,9
2012/3/12 1:10,1.6,11,1.7,12,2,12
2012/3/12 1:11,1.6,11,1.6,12,2.2,16
2012/3/12 1:12,1.6,11,1.6,12,2,1
2012/3/12 1:13,1.4,11,1.6,12,1.9,10
2012/3/12 1:14,1.2,12,1.3,12,1.6,9
2012/3/12 1:15,1.3,12,1.3,12,2.5,15
2012/3/12 1:16,1.4,12,1.4,12,4.8,9
2012/3/12 1:17,1.5,11,1.5,12,5.2,10
2012/3/12 1:18,1.5,11,1.5,11,4.2,10
2012/3/12 1:19,1.6,11,1.6,11,5.4,11
2012/3/12 1:20,1.8,11,1.8,11,5.1,10
2012/3/12 1:21,1.9,11,2,11,4.7,10
2012/3/12 1:22,1.9,11,1.9,11,1.9,12
2012/3/12 1:23,2,11,2,11,2.4,16
2012/3/12 1:24,2.1,11,2.1,11,3.3,1
2012/3/12 1:25,2.1,11,2.1,11,4.4,12
2012/3/12 1:26,2.1,12,2.2,11,2.5,2
2012/3/12 1:27,1.9,13,2.1,11,1.8,1
2012/3/12 1:28,1.7,13,1.8,11,1.5,7
2012/3/12 1:29,1.6,15,1.8,11,1.4,14
2012/3/12 1:30,1.3,15,1.5,11,1.9,13
2012/3/12 1:31,1.3,15,1.3,11,3.2,11
2012/3/12 1:32,1.4,15,1.4,11,5.4,13
2012/3/12 1:33,1.7,15,1.7,11,6.3,13
2012/3/12 1:34,1.8,13,1.8,11,4.9,9
2012/3/12 1:35,1.9,13,1.9,11,6.1,12
2012/3/12 1:36,2,13,2,12,4.2,13
2012/3/12 1:37,2.1,12,2.1,12,4.3,10
2012/3/12 1:38,2.2,12,2.2,12,5.5,9
2012/3/12 1:39,2.2,12,2.2,12,2.1,3
2012/3/12 1:40,2.3,12,2.3,12,4.2,16
2012/3/12 1:41,2.4,12,2.4,12,5.2,15
2012/3/12 1:42,2.2,13,2.4,12,2.1,15
2012/3/12 1:43,2,13,2.2,12,3.9,10
2012/3/12 1:44,2,13,2.1,12,5.8,10
2012/3/12 1:45,2,13,2,12,9.1,11
2012/3/12 1:46,2.1,12,2.1,12,8.6,10
2012/3/12 1:47,2.3,12,2.3,12,6,9
2012/3/12 1:48,2.2,12,2.3,12,3.5,8
2012/3/12 1:49,2.3,12,2.3,12,2.2,9
2012/3/12 1:50,2.2,11,2.2,12,1.5,15
2012/3/12 1:51,2,11,2.1,12,2,9
2012/3/12 1:52,2,11,2,12,2.6,12
2012/3/12 1:53,2.1,11,2.1,12,3.8,13
2012/3/12 1:54,2,11,2.1,12,4.7,11
2012/3/12 1:55,1.9,12,2,12,4.4,15
2012/3/12 1:56,1.7,13,1.8,12,3.8,14
2012/3/12 1:57,1.5,13,1.7,12,2.7,16
2012/3/12 1:58,1.4,14,1.5,12,1.1,15
2012/3/12 1:59,1.5,14,1.5,12,3.9,16
2012/3/12 2:00,1.7,15,1.7,11,5,16
2012/3/12 2:01,1.7,15,1.7,11,2.5,2
2012/3/12 2:02,1.7,15,1.7,11,1.5,7
2012/3/12 2:03,1.6,15,1.7,11,2.1,16
2012/3/12 2:04,1.6,15,1.6,11,2.2,16
2012/3/12 2:05,1.5,15,1.6,12,3.2,16
2012/3/12 2:06,1.5,15,1.6,13,5.1,15
2012/3/12 2:07,1.5,16,1.5,14,3,16
2012/3/12 2:08,1.7,15,1.8,15,6.2,12
2012/3/12 2:09,1.9,15,1.9,15,4.8,15
2012/3/12 2:10,1.8,15,1.9,15,3.2,13
2012/3/12 2:11,1.7,15,1.8,15,1.3,1
2012/3/12 2:12,1.6,15,1.7,15,1,14
2012/3/12 2:13,1.8,14,1.8,15,6.1,11
2012/3/12 2:14,1.9,14,1.9,15,5.4,10
2012/3/12 2:15,1.9,13,2,13,4.9,12
2012/3/12 2:16,2,12,2,13,5.4,10
2012/3/12 2:17,2.1,12,2.1,12,5.2,10
2012/3/12 2:18,2,12,2.2,12,5,9
2012/3/12 2:19,2.1,11,2.1,12,6.8,10
2012/3/12 2:20,2.2,11,2.2,12,7.5,8
2012/3/12 2:21,2.6,10,2.6,10,9.3,11
2012/3/12 2:22,3,10,3,10,7.7,10
2012/3/12 2:23,3.2,10,3.3,10,6.9,10
2012/3/12 2:24,3.4,10,3.4,10,5.7,11
2012/3/12 2:25,3.4,10,3.4,10,4.4,10
2012/3/12 2:26,3.4,10,3.5,10,5.8,9
2012/3/12 2:27,3.3,10,3.3,10,3.6,12
2012/3/12 2:28,3.2,10,3.3,10,3.5,11
2012/3/12 2:29,3.1,10,3.2,10,3.9,7
2012/3/12 2:30,3.2,11,3.2,10,6.4,10
2012/3/12 2:31,3.1,11,3.2,10,6,11
2012/3/12 2:32,3,11,3.1,10,8.3,9
2012/3/12 2:33,2.9,11,3,10,7.2,11
2012/3/12 2:34,3,11,3,10,6.8,12
2012/3/12 2:35,3.1,11,3.1,10,7.5,11
2012/3/12 2:36,3.5,11,3.5,11,10.9,9
2012/3/12 2:37,3.8,11,3.8,11,6.3,13
2012/3/12 2:38,3.9,11,3.9,11,7.2,9
2012/3/12 2:39,3.9,11,3.9,11,4.8,11
2012/3/12 2:40,3.6,11,3.9,11,3.2,12
2012/3/12 2:41,3.4,11,3.6,11,2.6,1
2012/3/12 2:42,3,11,3.4,11,0.9,16
2012/3/12 2:43,2.7,11,3,11,0.5,7
2012/3/12 2:44,2.4,11,2.6,11,3.2,8
2012/3/12 2:45,2.2,10,2.4,11,2.7,9
2012/3/12 2:46,1.8,11,2.2,11,4.2,16
2012/3/12 2:47,1.5,13,1.8,11,4.4,16
2012/3/12 2:48,1.3,15,1.5,11,1.6,14
2012/3/12 2:49,1.2,16,1.3,11,2,13
2012/3/12 2:50,1.1,1,1.2,11,3.9,10
2012/3/12 2:51,1.2,16,1.2,11,7.4,9
2012/3/12 2:52,1.5,13,1.5,11,5.6,11
2012/3/12 2:53,1.7,14,1.7,11,5.2,14
2012/3/12 2:54,1.8,14,1.8,11,4.1,13
2012/3/12 2:55,1.9,13,1.9,10,3.6,11
2012/3/12 2:56,1.9,13,1.9,14,4.1,16
2012/3/12 2:57,1.9,13,1.9,14,3.2,14
2012/3/12 2:58,2,13,2,13,4.3,15
2012/3/12 2:59,2.2,14,2.2,14,3.8,1
2012/3/12 3:00,2.1,14,2.2,14,3.7,1
2012/3/12 3:01,2,14,2.1,14,0.6,12
2012/3/12 3:02,1.8,14,1.9,14,3.3,16
2012/3/12 3:03,1.8,15,1.8,14,3.9,16
2012/3/12 3:04,1.9,15,1.9,14,3.3,2
2012/3/12 3:05,1.8,15,1.9,14,3.1,16
2012/3/12 3:06,1.7,16,1.8,14,2.5,1
2012/3/12 3:07,1.7,16,1.7,14,1.9,15
2012/3/12 3:08,1.7,15,1.7,14,3,12
2012/3/12 3:09,1.6,15,1.6,14,3,9
2012/3/12 3:10,1.5,15,1.6,14,1.8,9
2012/3/12 3:11,1.5,14,1.5,14,1.6,11
2012/3/12 3:12,1.6,13,1.6,15,3.2,9
2012/3/12 3:13,1.5,12,1.6,15,3.3,10
2012/3/12 3:14,1.5,11,1.5,15,4.1,9
2012/3/12 3:15,1.3,11,1.4,15,1,10
2012/3/12 3:16,1.2,11,1.3,16,1.5,15
2012/3/12 3:17,1.2,11,1.2,16,1.5,2
2012/3/12 3:18,1.1,11,1.2,15,1.3,2
2012/3/12 3:19,1.1,12,1.1,15,4.9,14
2012/3/12 3:20,1.3,13,1.3,14,5.8,14
2012/3/12 3:21,1.4,13,1.4,14,4.7,14
2012/3/12 3:22,1.4,14,1.4,13,3.8,8
2012/3/12 3:23,1.5,14,1.5,12,4.8,11
2012/3/12 3:24,1.5,14,1.6,14,4.3,12
2012/3/12 3:25,1.5,14,1.5,14,1,8
2012/3/12 3:26,1.6,14,1.6,14,4.9,15
2012/3/12 3:27,1.6,13,1.6,14,2.4,16
2012/3/12 3:28,1.8,13,1.8,13,4.9,13
2012/3/12 3:29,1.9,12,1.9,13,4.9,12
2012/3/12 3:30,1.7,12,1.9,13,3,11
2012/3/12 3:31,1.8,12,1.8,13,4.8,13
2012/3/12 3:32,1.8,12,1.8,13,3,12
2012/3/12 3:33,1.8,12,1.8,13,5.8,14
2012/3/12 3:34,1.7,13,1.8,13,2.2,3
2012/3/12 3:35,2,12,2,12,4.4,10
2012/3/12 3:36,2,12,2.1,12,5,8
2012/3/12 3:37,2,12,2,12,3,13
2012/3/12 3:38,2,12,2,12,4.4,10
2012/3/12 3:39,1.9,12,2,12,5.4,10
2012/3/12 3:40,1.9,12,1.9,12,2.7,12
2012/3/12 3:41,1.8,12,2,12,1.6,14
2012/3/12 3:42,1.8,12,1.8,12,4.4,10
2012/3/12 3:43,1.8,11,1.8,12,5.4,8
2012/3/12 3:44,1.8,11,1.8,12,3.6,9
2012/3/12 3:45,1.6,12,1.8,12,1.6,12
2012/3/12 3:46,1.5,12,1.6,12,1.5,9
2012/3/12 3:47,1.4,12,1.5,12,1.3,11
2012/3/12 3:48,1.5,12,1.5,12,1.6,1
2012/3/12 3:49,1.3,13,1.4,12,2.4,2
2012/3/12 3:50,1.2,13,1.3,12,1.1,16
2012/3/12 3:51,1.4,14,1.4,13,3.7,16
2012/3/12 3:52,1.5,14,1.5,12,4.2,16
2012/3/12 3:53,1.4,15,1.5,11,3.2,15
2012/3/12 3:54,1.4,15,1.4,11,3.3,15
2012/3/12 3:55,1.4,15,1.4,12,2.4,12
2012/3/12 3:56,1.5,16,1.5,12,4.2,11
2012/3/12 3:57,1.7,15,1.7,16,4.8,10
2012/3/12 3:58,1.7,14,1.7,16,3.3,9
2012/3/12 3:59,1.7,14,1.7,16,2.6,9
2012/3/12 4:00,1.8,14,1.8,14,2.6,1
2012/3/12 4:01,1.7,14,1.8,14,3,1
2012/3/12 4:02,1.6,14,1.7,14,4.3,1
2012/3/12 4:03,1.5,14,1.6,14,3.3,1
2012/3/12 4:04,1.4,14,1.5,14,1.6,15
2012/3/12 4:05,1.5,14,1.5,14,3,15
2012/3/12 4:06,1.4,15,1.5,14,1.6,2
2012/3/12 4:07,1.2,15,1.4,14,0.5,2
2012/3/12 4:08,1.1,16,1.2,14,2.4,12
2012/3/12 4:09,1.1,16,1.2,14,2.2,16
2012/3/12 4:10,1.3,16,1.3,14,4.5,15
2012/3/12 4:11,1.4,16,1.4,14,3.3,1
2012/3/12 4:12,1.5,16,1.5,14,4.2,15
2012/3/12 4:13,1.8,16,1.8,16,7.6,16
2012/3/12 4:14,1.8,16,1.9,16,2.7,16
2012/3/12 4:15,1.8,16,1.8,16,4.8,10
2012/3/12 4:16,2,16,2,16,3.8,12
2012/3/12 4:17,2.2,15,2.2,15,3.5,15
2012/3/12 4:18,2.2,15,2.3,15,3.3,15
2012/3/12 4:19,2.3,15,2.3,15,4.3,11
2012/3/12 4:20,2.3,15,2.3,15,5.7,13
2012/3/12 4:21,2.3,15,2.3,15,3.5,1
2012/3/12 4:22,2.2,15,2.3,15,2.6,16
2012/3/12 4:23,1.9,14,2.1,15,3.1,6
2012/3/12 4:24,2,14,2,15,5.4,10
2012/3/12 4:25,1.9,14,2.1,15,3.9,13
2012/3/12 4:26,1.8,14,1.9,15,2.1,13
2012/3/12 4:27,1.9,15,1.9,15,4.4,16
2012/3/12 4:28,2,15,2,15,3.9,16
2012/3/12 4:29,2,15,2,15,3.2,16
2012/3/12 4:30,1.8,15,2,15,3.7,16
2012/3/12 4:31,1.9,15,1.9,15,4.5,16
2012/3/12 4:32,1.9,15,2,15,4.3,16
2012/3/12 4:33,2,15,2,14,3.5,11
2012/3/12 4:34,1.9,15,2,14,2.9,12
2012/3/12 4:35,1.9,15,1.9,15,5.7,13
2012/3/12 4:36,2.2,15,2.2,15,6.7,16
2012/3/12 4:37,2,15,2.2,15,2.7,2
2012/3/12 4:38,2,15,2,15,3.8,15
2012/3/12 4:39,2.1,15,2.1,15,3.8,16
2012/3/12 4:40,2.4,15,2.4,15,10.9,16
2012/3/12 4:41,2.5,15,2.5,15,9.1,16
2012/3/12 4:42,2.7,15,2.7,15,8.7,16
2012/3/12 4:43,2.8,15,2.8,15,5.2,16
2012/3/12 4:44,2.7,16,2.8,15,2.4,9
2012/3/12 4:45,2.8,16,2.8,15,2.9,2
2012/3/12 4:46,2.5,16,2.7,15,3.6,8
2012/3/12 4:47,2.7,16,2.7,15,5.5,16
2012/3/12 4:48,3.1,16,3.1,16,11,16
2012/3/12 4:49,3.1,16,3.1,16,5.4,16
2012/3/12 4:50,2.8,16,3.1,16,4.5,16
2012/3/12 4:51,2.6,15,2.7,16,4.4,12
2012/3/12 4:52,2.3,15,2.6,16,3.1,2
2012/3/12 4:53,2.2,15,2.3,16,4.7,15
2012/3/12 4:54,2.2,15,2.2,16,2.7,1
2012/3/12 4:55,2.1,15,2.2,16,0.8,8
2012/3/12 4:56,2.1,15,2.1,16,2.7,16
2012/3/12 4:57,1.9,15,2.1,16,2.5,15
2012/3/12 4:58,1.5,14,1.9,16,3.5,11
2012/3/12 4:59,1.4,14,1.4,16,3.8,11
2012/3/12 5:00,1.4,14,1.4,16,2.5,15
2012/3/12 5:01,1.4,15,1.4,15,5.6,16
2012/3/12 5:02,1.7,15,1.7,15,7.1,16
2012/3/12 5:03,1.7,15,1.8,15,5.4,16
2012/3/12 5:04,1.9,15,1.9,15,5.1,11
2012/3/12 5:05,2,15,2,15,5.4,16
2012/3/12 5:06,2.3,15,2.3,15,5.7,16
2012/3/12 5:07,2.5,16,2.5,16,5.5,16
2012/3/12 5:08,2.5,16,2.5,16,4.2,16
2012/3/12 5:09,2.5,16,2.5,16,2.4,2
2012/3/12 5:10,2.4,16,2.5,16,0.6,8
2012/3/12 5:11,2.2,16,2.3,16,1.6,12
2012/3/12 5:12,1.9,16,2.2,16,1.6,13
2012/3/12 5:13,1.7,15,1.9,16,1.8,13
2012/3/12 5:14,1.6,16,1.7,16,2.5,16
2012/3/12 5:15,1.7,15,1.7,16,3.7,14
2012/3/12 5:16,1.4,15,1.7,16,3.6,2
2012/3/12 5:17,1.2,15,1.4,16,3,16
2012/3/12 5:18,1.2,15,1.2,16,1.9,3
2012/3/12 5:19,1.1,14,1.2,16,1.1,11
2012/3/12 5:20,1.2,13,1.2,16,1.6,7
2012/3/12 5:21,1.2,13,1.2,16,1.3,9
2012/3/12 5:22,1.1,14,1.2,16,1.3,6
2012/3/12 5:23,1.1,14,1.1,15,1.4,6
2012/3/12 5:24,1.1,11,1.1,16,1.5,7
2012/3/12 5:25,0.9,10,1.1,15,1.4,11
2012/3/12 5:26,1,10,1,15,6.7,9
2012/3/12 5:27,1.1,10,1.1,15,4.8,11
2012/3/12 5:28,1.3,10,1.3,10,4.5,10
2012/3/12 5:29,1.7,10,1.7,10,7.5,10
2012/3/12 5:30,2,11,2,11,6.9,11
2012/3/12 5:31,2.3,11,2.3,11,6.7,10
2012/3/12 5:32,2.4,11,2.4,11,5.6,9
2012/3/12 5:33,2.5,11,2.5,11,2.6,12
2012/3/12 5:34,2.6,12,2.6,11,2.7,16
2012/3/12 5:35,2.5,12,2.6,11,2.4,10
2012/3/12 5:36,2.4,12,2.5,11,3.6,7
2012/3/12 5:37,2.2,11,2.4,11,1.8,16
2012/3/12 5:38,2,12,2.2,11,1.4,6
2012/3/12 5:39,1.7,12,2,11,2.9,11
2012/3/12 5:40,1.4,11,1.7,11,2.9,13
2012/3/12 5:41,1.3,12,1.4,11,5.1,14
2012/3/12 5:42,1.3,13,1.3,11,7.5,14
2012/3/12 5:43,1.6,13,1.6,11,8.4,16
2012/3/12 5:44,1.8,13,1.8,12,3.9,13
2012/3/12 5:45,2,13,2,12,4.3,15
2012/3/12 5:46,1.9,13,2,12,1.3,14
2012/3/12 5:47,1.9,13,1.9,11,2.2,10
2012/3/12 5:48,2,13,2,12,4.8,10
2012/3/12 5:49,2.1,13,2.1,13,3.7,11
2012/3/12 5:50,2.2,13,2.2,13,3,12
2012/3/12 5:51,2.2,13,2.2,13,2.9,13
2012/3/12 5:52,2,12,2.2,13,3,9
2012/3/12 5:53,1.7,12,2,13,6.1,11
2012/3/12 5:54,1.8,12,1.8,13,7,12
2012/3/12 5:55,1.8,12,1.8,13,5.1,16
2012/3/12 5:56,2.4,13,2.4,13,11.4,16
2012/3/12 5:57,2.6,13,2.6,13,6.7,14
2012/3/12 5:58,2.8,14,2.9,13,5.7,14
2012/3/12 5:59,2.8,14,2.9,13,4.9,12
2012/3/12 6:00,2.7,14,2.8,13,1.9,15
2012/3/12 6:01,2.8,15,2.8,13,4.1,16
2012/3/12 6:02,2.8,15,2.9,13,3,1
2012/3/12 6:03,2.9,15,2.9,13,5.6,1
2012/3/12 6:04,3,15,3,15,5.6,12
2012/3/12 6:05,2.9,15,3,15,3.9,8
2012/3/12 6:06,2.5,14,2.9,15,5.2,8
2012/3/12 6:07,2.4,13,2.5,15,3.3,12
2012/3/12 6:08,2.2,12,2.4,15,2.1,10
2012/3/12 6:09,2,13,2.2,15,2.6,14
2012/3/12 6:10,2.2,13,2.2,15,5,16
2012/3/12 6:11,2.2,13,2.3,15,4.1,16
2012/3/12 6:12,2.2,13,2.2,15,3.2,14
2012/3/12 6:13,2.1,13,2.2,15,2,15
2012/3/12 6:14,1.8,13,2,15,1.1,10
2012/3/12 6:15,1.8,14,1.8,15,4.5,11
2012/3/12 6:16,1.8,14,1.9,14,7.5,9
2012/3/12 6:17,1.7,14,1.8,13,6.5,10
2012/3/12 6:18,2.2,14,2.2,13,9.3,11
2012/3/12 6:19,2.5,14,2.5,14,7.5,10
2012/3/12 6:20,2.6,14,2.6,14,6.4,14
2012/3/12 6:21,2.7,13,2.7,14,7,13
2012/3/12 6:22,2.9,13,2.9,13,6.2,11
2012/3/12 6:23,3,12,3,13,6.1,10
2012/3/12 6:24,3.3,12,3.3,12,7.6,12
2012/3/12 6:25,3.4,12,3.4,12,6.5,13
2012/3/12 6:26,3.5,12,3.5,12,6.4,15
2012/3/12 6:27,3.7,12,3.7,12,4.9,10
2012/3/12 6:28,3.4,12,3.7,12,6.5,8
2012/3/12 6:29,3.5,12,3.5,12,11,10
2012/3/12 6:30,3.3,12,3.5,12,5.7,10
2012/3/12 6:31,3.2,11,3.3,12,5.6,10
2012/3/12 6:32,3.2,11,3.2,12,6.3,8
2012/3/12 6:33,3.3,11,3.3,12,6.1,9
2012/3/12 6:34,3.1,11,3.3,12,2.5,11
2012/3/12 6:35,3,11,3,12,3.2,16
2012/3/12 6:36,2.8,11,2.9,12,5.8,9
2012/3/12 6:37,2.7,11,2.8,12,4.5,10
2012/3/12 6:38,2.7,11,2.7,12,8.2,12
2012/3/12 6:39,2.5,11,2.7,12,5.6,10
2012/3/12 6:40,2.6,11,2.6,12,5.2,10
2012/3/12 6:41,2.6,11,2.6,11,6.4,11
2012/3/12 6:42,2.5,11,2.7,11,6.4,10
2012/3/12 6:43,2.4,12,2.6,11,4.5,12
2012/3/12 6:44,2.4,12,2.4,11,1.4,2
2012/3/12 6:45,2.3,12,2.4,11,1.6,16
2012/3/12 6:46,2.1,12,2.3,11,2.2,6
2012/3/12 6:47,2,12,2.1,11,2.1,3
2012/3/12 6:48,1.8,12,2,11,1.3,7
2012/3/12 6:49,1.5,14,1.7,11,2.2,3
2012/3/12 6:50,1.4,14,1.5,11,3.2,4
2012/3/12 6:51,1.3,14,1.4,11,6.2,10
2012/3/12 6:52,1.4,14,1.4,11,5.8,11
2012/3/12 6:53,1.3,14,1.3,12,3.2,10
2012/3/12 6:54,1.3,14,1.3,12,2,16
2012/3/12 6:55,1.4,13,1.4,12,4.2,1
2012/3/12 6:56,1.5,13,1.5,12,3.2,16
2012/3/12 6:57,1.6,13,1.6,12,3.2,12
2012/3/12 6:58,1.8,13,1.8,13,4.4,12
2012/3/12 6:59,1.9,12,1.9,12,6.4,10
2012/3/12 7:00,2.2,12,2.2,12,8.2,10
2012/3/12 7:01,2.4,12,2.4,12,6.8,10
2012/3/12 7:02,2.4,12,2.4,12,6,10
2012/3/12 7:03,2.5,12,2.5,12,4.3,11
2012/3/12 7:04,2.6,11,2.6,12,6,11
2012/3/12 7:05,2.8,11,2.8,11,6.7,10
2012/3/12 7:06,2.9,11,2.9,11,9,12
2012/3/12 7:07,3.1,11,3.1,11,9.2,10
2012/3/12 7:08,3.1,10,3.1,11,4.9,11
2012/3/12 7:09,3.2,10,3.2,10,5.1,9
2012/3/12 7:10,3.2,10,3.2,10,7.4,9
2012/3/12 7:11,3.1,10,3.2,10,4.9,10
2012/3/12 7:12,2.9,11,3,10,4.2,11
2012/3/12 7:13,2.9,11,2.9,10,5.4,9
2012/3/12 7:14,2.8,11,3,10,3.6,11
2012/3/12 7:15,2.7,10,2.8,10,3.8,8
2012/3/12 7:16,2.6,10,2.8,10,3.9,12
2012/3/12 7:17,2.5,11,2.6,10,5,13
2012/3/12 7:18,2.4,11,2.5,10,3.8,9
2012/3/12 7:19,2.3,11,2.4,10,5,9
2012/3/12 7:20,2.2,11,2.3,10,4.2,10
2012/3/12 7:21,2,11,2.2,10,2.5,13
2012/3/12 7:22,1.9,11,2.1,11,2.7,3
2012/3/12 7:23,1.8,12,1.9,11,2.7,2
2012/3/12 7:24,1.8,12,1.8,11,3.5,1
2012/3/12 7:25,1.9,13,1.9,10,3.2,16
2012/3/12 7:26,1.7,13,1.8,10,1.4,16
2012/3/12 7:27,1.4,14,1.7,11,0.9,13
2012/3/12 7:28,1.3,14,1.4,11,1.1,6
2012/3/12 7:29,1.3,15,1.3,11,2.9,2
2012/3/12 7:30,1.2,16,1.2,11,2.7,4
2012/3/12 7:31,1.2,1,1.2,11,2.9,5
2012/3/12 7:32,1.3,2,1.3,11,3.5,6
2012/3/12 7:33,1.4,3,1.4,12,3,6
2012/3/12 7:34,1.4,4,1.5,12,2.9,6
2012/3/12 7:35,1.3,5,1.4,13,2.1,5
2012/3/12 7:36,1.4,5,1.4,13,2.5,8
2012/3/12 7:37,1.6,5,1.6,5,2.2,6
2012/3/12 7:38,1.7,5,1.7,5,2.2,6
2012/3/12 7:39,1.8,6,1.8,6,2.7,5
2012/3/12 7:40,1.9,6,1.9,6,4.3,8
2012/3/12 7:41,1.9,6,1.9,6,3.2,5
2012/3/12 7:42,1.8,6,1.9,6,2.2,6
2012/3/12 7:43,1.8,6,1.8,6,3.1,7
2012/3/12 7:44,1.9,6,1.9,6,3.5,6
2012/3/12 7:45,1.9,6,2,6,2.9,6
2012/3/12 7:46,1.8,6,1.9,6,0.3,6
2012/3/12 7:47,1.7,6,1.7,6,2,4
2012/3/12 7:48,1.7,6,1.7,6,3.6,5
2012/3/12 7:49,1.8,6,1.8,6,4.4,7
2012/3/12 7:50,1.9,6,1.9,6,4.3,7
2012/3/12 7:51,1.8,6,1.9,6,3.9,8
2012/3/12 7:52,1.9,6,1.9,6,2.7,5
2012/3/12 7:53,1.9,6,1.9,6,4.5,7
2012/3/12 7:54,1.8,6,1.8,6,2.7,10
2012/3/12 7:55,1.7,7,1.7,6,1.9,10
2012/3/12 7:56,1.8,6,1.8,6,2.2,16
2012/3/12 7:57,1.9,7,1.9,6,2.7,12
2012/3/12 7:58,1.8,9,1.9,6,3.3,13
2012/3/12 7:59,1.7,10,1.8,6,2.6,11
2012/3/12 8:00,1.7,11,1.8,6,4.3,11
2012/3/12 8:01,1.7,11,1.7,6,2.9,10
2012/3/12 8:02,1.6,11,1.7,6,4.1,10
2012/3/12 8:03,1.6,11,1.6,6,4.3,8
2012/3/12 8:04,1.7,11,1.7,6,4.9,8
2012/3/12 8:05,1.8,11,1.8,6,4.1,10
2012/3/12 8:06,1.9,11,1.9,6,4.2,10
2012/3/12 8:07,1.9,10,1.9,7,3,11
2012/3/12 8:08,1.8,10,1.9,11,1.6,12
2012/3/12 8:09,1.7,10,1.8,11,1.6,11
2012/3/12 8:10,1.5,10,1.7,11,1.4,10
2012/3/12 8:11,1.5,10,1.5,11,3.1,10
2012/3/12 8:12,1.7,10,1.7,11,3.7,11
2012/3/12 8:13,1.8,11,1.8,11,3.9,12
2012/3/12 8:14,1.7,11,1.8,11,2.4,13
2012/3/12 8:15,1.7,11,1.7,11,2,10
2012/3/12 8:16,1.5,11,1.7,11,3,12
2012/3/12 8:17,1.5,11,1.6,10,3,10
2012/3/12 8:18,1.6,11,1.6,10,2.4,1
2012/3/12 8:19,1.6,11,1.6,10,3.1,2
2012/3/12 8:20,1.7,11,1.7,10,2.7,2
2012/3/12 8:21,1.6,12,1.7,10,2.2,2
2012/3/12 8:22,1.5,13,1.6,10,2.5,2
2012/3/12 8:23,1.3,16,1.4,11,1.4,1
2012/3/12 8:24,1.2,2,1.3,11,1.5,1
2012/3/12 8:25,1,1,1.2,11,0.4,10
2012/3/12 8:26,0.9,2,1,11,0,11
2012/3/12 8:27,0.8,2,0.9,11,4.1,7
2012/3/12 8:28,0.8,2,0.8,11,2.6,8
2012/3/12 8:29,0.7,1,0.8,11,1.6,10
2012/3/12 8:30,0.7,13,0.7,11,0.8,9
2012/3/12 8:31,0.6,12,0.7,12,1.4,12
2012/3/12 8:32,0.6,11,0.6,13,2.7,8
2012/3/12 8:33,0.8,10,0.8,16,4.1,8
2012/3/12 8:34,1,10,1,2,4.2,8
2012/3/12 8:35,1.2,9,1.2,9,3.6,8
2012/3/12 8:36,1.3,9,1.3,9,2.7,8
2012/3/12 8:37,1.4,9,1.4,9,3,8
2012/3/12 8:38,1.5,9,1.5,9,1.9,10
2012/3/12 8:39,1.5,9,1.5,9,2.4,10
2012/3/12 8:40,1.7,9,1.7,9,2.5,8
2012/3/12 8:41,1.7,9,1.7,9,2,8
2012/3/12 8:42,1.7,9,1.7,9,1,9
2012/3/12 8:43,1.4,9,1.7,9,1.3,7
2012/3/12 8:44,1.2,9,1.4,9,1,9
2012/3/12 8:45,1,9,1.2,9,1.5,9
2012/3/12 8:46,0.9,9,1,9,0.8,10
2012/3/12 8:47,0.8,10,0.9,9,1,15
2012/3/12 8:48,0.7,10,0.8,9,0.6,12
2012/3/12 8:49,0.5,10,0.6,9,1.6,7
2012/3/12 8:50,0.4,10,0.5,9,1.4,7
2012/3/12 8:51,0.4,10,0.4,9,1.1,11
2012/3/12 8:52,0.4,11,0.4,9,1,16
2012/3/12 8:53,0.4,12,0.4,9,1.3,16
2012/3/12 8:54,0.5,12,0.5,9,2.1,8
2012/3/12 8:55,0.6,12,0.6,9,3.1,10
2012/3/12 8:56,0.8,11,0.8,9,3.2,10
2012/3/12 8:57,0.9,11,0.9,11,1.8,8
2012/3/12 8:58,0.9,10,0.9,11,2,10
2012/3/12 8:59,1.1,10,1.1,10,4.1,9
2012/3/12 9:00,1.2,10,1.2,10,3.8,10
2012/3/12 9:01,1.4,10,1.4,10,4.5,10
2012/3/12 9:02,1.7,10,1.7,10,5.5,10
2012/3/12 9:03,1.8,10,1.8,10,4.4,9
2012/3/12 9:04,2.1,10,2.1,10,4.9,10
2012/3/12 9:05,2.1,10,2.1,10,3.3,9
2012/3/12 9:06,2.2,10,2.2,10,4.7,11
2012/3/12 9:07,2.2,10,2.2,10,5.1,9
2012/3/12 9:08,2.3,10,2.3,10,3.5,11
2012/3/12 9:09,2.5,10,2.5,10,6.9,10
2012/3/12 9:10,2.6,10,2.6,10,3.9,11
2012/3/12 9:11,2.5,10,2.5,10,2.9,8
2012/3/12 9:12,2.4,10,2.5,10,3.1,8
2012/3/12 9:13,2.5,10,2.5,10,6.1,10
2012/3/12 9:14,2.7,10,2.7,10,7.6,10
2012/3/12 9:15,2.8,10,2.8,10,6.9,10
2012/3/12 9:16,2.9,10,2.9,10,4.8,9
2012/3/12 9:17,3,10,3,10,4.7,8
2012/3/12 9:18,3.1,10,3.1,10,3.9,9
2012/3/12 9:19,3,10,3.1,10,4.1,9
2012/3/12 9:20,3,10,3,10,4.2,10
2012/3/12 9:21,3,10,3.1,10,3.1,9
2012/3/12 9:22,3.1,10,3.1,10,3.8,9
2012/3/12 9:23,2.8,10,3.1,10,3.5,7
2012/3/12 9:24,2.5,9,2.8,10,4.4,10
2012/3/12 9:25,2.3,9,2.5,10,4.3,9
2012/3/12 9:26,2.2,9,2.3,10,4.1,10
2012/3/12 9:27,2.3,9,2.3,10,6.2,9
2012/3/12 9:28,2.3,9,2.3,10,4.5,10
2012/3/12 9:29,2.2,10,2.3,10,4.2,10
2012/3/12 9:30,2.2,10,2.2,10,5.4,10
2012/3/12 9:31,2.4,10,2.4,10,4.9,10
2012/3/12 9:32,2.3,10,2.4,10,3.1,9
2012/3/12 9:33,2.6,10,2.6,9,6,10
2012/3/12 9:34,2.8,10,2.8,10,6.1,10
2012/3/12 9:35,3.1,10,3.1,10,6.2,10
2012/3/12 9:36,3.2,10,3.2,10,4.9,10
2012/3/12 9:37,3.1,10,3.2,10,3.7,10
2012/3/12 9:38,3,10,3.1,10,2.7,8
2012/3/12 9:39,3,10,3,10,2.7,10
2012/3/12 9:40,2.8,10,3,10,2.4,10
2012/3/12 9:41,2.8,10,2.8,10,4.5,9
2012/3/12 9:42,2.8,10,2.8,10,3.9,9
2012/3/12 9:43,2.6,10,2.8,10,3.2,9
2012/3/12 9:44,2.4,10,2.6,10,3.9,9
2012/3/12 9:45,2.2,10,2.4,10,4.7,9
2012/3/12 9:46,2.2,10,2.2,10,5.4,11
2012/3/12 9:47,2.3,10,2.3,10,4.9,9
2012/3/12 9:48,2.4,10,2.4,10,4.7,11
2012/3/12 9:49,2.4,10,2.4,10,4.2,11
2012/3/12 9:50,2.6,10,2.6,10,4.3,11
2012/3/12 9:51,2.5,10,2.6,10,3.7,10
2012/3/12 9:52,2.4,10,2.5,10,1.6,7
2012/3/12 9:53,2.4,9,2.4,10,2.1,3
2012/3/12 9:54,2.3,9,2.4,10,2.6,4
2012/3/12 9:55,2.2,9,2.3,10,1.1,3
2012/3/12 9:56,1.9,9,2.1,10,1.8,16
2012/3/12 9:57,1.7,10,1.9,10,3.1,12
2012/3/12 9:58,1.7,10,1.7,10,3.5,11
2012/3/12 9:59,1.6,9,1.7,10,2.7,8
2012/3/12 10:00,1.3,8,1.5,10,2.6,7
2012/3/12 10:01,1.3,6,1.3,10,3,9
2012/3/12 10:02,1.4,7,1.4,10,5.6,9
2012/3/12 10:03,1.5,9,1.5,9,4.8,9
2012/3/12 10:04,1.6,10,1.6,9,4.2,8
2012/3/12 10:05,1.6,10,1.6,9,2.9,9
2012/3/12 10:06,1.6,10,1.6,9,3.6,10
2012/3/12 10:07,1.7,9,1.7,10,5.4,9
2012/3/12 10:08,1.9,9,1.9,9,6,8
2012/3/12 10:09,2,9,2,9,5.8,8
2012/3/12 10:10,2.4,9,2.4,9,7.7,10
2012/3/12 10:11,2.6,9,2.6,9,7.8,10
2012/3/12 10:12,2.7,9,2.7,9,5.7,10
2012/3/12 10:13,2.7,9,2.7,9,6.3,9
2012/3/12 10:14,3,9,3,9,6.7,9
2012/3/12 10:15,3.1,9,3.1,9,5.1,8
2012/3/12 10:16,3.3,9,3.3,9,5.1,9
2012/3/12 10:17,3.4,9,3.4,9,5.7,9
2012/3/12 10:18,3.4,9,3.4,9,5.2,9
2012/3/12 10:19,3.2,9,3.3,9,4.5,8
2012/3/12 10:20,3.1,9,3.2,9,5.4,8
2012/3/12 10:21,3,9,3.1,9,4.7,8
2012/3/12 10:22,2.9,9,3,9,5.7,10
2012/3/12 10:23,3.1,9,3.1,9,7.4,9
2012/3/12 10:24,2.9,9,3.1,9,6.2,11
2012/3/12 10:25,2.9,9,3,9,5.5,8
2012/3/12 10:26,2.8,9,2.9,9,4.8,9
2012/3/12 10:27,2.7,9,2.8,9,4.7,11
2012/3/12 10:28,2.7,9,2.7,9,6.2,9
2012/3/12 10:29,2.8,10,2.8,9,4.8,9
2012/3/12 10:30,2.8,10,2.9,9,6,9
2012/3/12 10:31,2.9,10,2.9,9,6.3,9
2012/3/12 10:32,2.9,10,3,9,4.8,11
2012/3/12 10:33,2.8,10,3,9,4.8,11
2012/3/12 10:34,2.7,10,2.8,9,5.5,10
2012/3/12 10:35,2.8,10,2.8,10,6.1,10
2012/3/12 10:36,2.9,10,3,10,5.1,9
2012/3/12 10:37,3,10,3,10,4.1,9
2012/3/12 10:38,2.9,10,3,10,4.4,10
2012/3/12 10:39,2.9,10,2.9,10,6.2,10
2012/3/12 10:40,2.7,10,2.9,10,5.2,11
2012/3/12 10:41,2.6,10,2.7,10,4.2,10
2012/3/12 10:42,2.6,10,2.6,10,4.9,9
2012/3/12 10:43,2.5,10,2.6,10,5,11
2012/3/12 10:44,2.8,10,2.8,10,7.5,9
2012/3/12 10:45,2.8,10,2.9,10,6.8,9
2012/3/12 10:46,2.8,10,2.8,10,4.1,10
2012/3/12 10:47,2.8,10,2.8,10,4.3,10
2012/3/12 10:48,2.6,10,2.7,10,1.8,9
2012/3/12 10:49,2.4,11,2.6,10,2.7,11
2012/3/12 10:50,2.5,11,2.5,10,4.4,10
2012/3/12 10:51,2.4,11,2.5,10,5.2,10
2012/3/12 10:52,2.4,10,2.5,10,4.8,11
2012/3/12 10:53,2.6,10,2.6,10,5.8,10
2012/3/12 10:54,2.5,10,2.6,10,6.4,10
2012/3/12 10:55,2.4,10,2.5,10,5.5,10
2012/3/12 10:56,2.4,10,2.4,10,6.9,10
2012/3/12 10:57,2.7,10,2.7,10,7.1,11
2012/3/12 10:58,3,10,3,10,5.5,11
2012/3/12 10:59,3.3,10,3.3,10,6.5,10
2012/3/12 11:00,3.5,10,3.5,10,7.1,9
2012/3/12 11:01,3.8,10,3.8,10,7.1,10
2012/3/12 11:02,3.9,10,3.9,10,5.4,10
2012/3/12 11:03,3.7,10,3.9,10,3.6,9